Simultaneous Nadir Overpasses (SNOs) Predictions

Prediction of SNOs between METOP-B and NOAA-19 Satellite Orbit:

Table of predicted SNOs for the next 14.0 days since TLE Epoch: 5/4/2024
Index Date (METOP-B) Time (METOP-B) Lat,Lon (METOP-B) SZA (METOP-B ) Date (NOAA-19) Time (NOAA-19) Lat,Lon (NOAA-19) SZA (NOAA-19 ) Distance(km) Time Diff (sec)
1 05/15/2024 00:59:14 76.02, 163.28 57.00 05/15/2024 00:57:59 76.01, 163.22 56.99 2.27 75
2 05/15/2024 01:49:48 -76.37, -28.18 122.66 05/15/2024 01:48:56 -76.37, -28.20 122.66 0.60 52
3 05/15/2024 02:40:24 76.55, 139.78 57.51 05/15/2024 02:39:45 76.54, 139.75 57.51 1.00 39
4 05/15/2024 03:30:59 -76.84, -51.77 122.20 05/15/2024 03:30:43 -76.85, -51.75 122.19 0.64 16
5 05/15/2024 04:21:35 77.01, 116.25 57.98 05/15/2024 04:21:32 77.02, 116.26 57.98 0.33 3
6 05/15/2024 05:12:10 -77.30, -75.23 121.73 05/15/2024 05:12:30 -77.31, -75.17 121.72 1.90 20
7 05/15/2024 06:02:47 77.43, 92.65 58.40 05/15/2024 06:03:20 77.43, 92.71 58.41 1.69 33
8 05/15/2024 06:53:23 -77.66, -98.96 121.36 05/15/2024 06:54:19 -77.68, -98.85 121.33 3.22 56



Historial Predications of SNOs between METOP-B and NOAA-19
